Location: Czu?�w
(50.1404°N, 18.9919°E)
Time: 14:33:54
(UTC+00:00)

Cosmos 1939 Rocket - Pass Details

Date: 27 October 2020
Orbit: 532 x 584 km, 97.4° (Epoch: 28 November)

Event Time Altitude Azimuth Distance (km) Brightness Sun altitude
Rises 16:58:22 0° 173° (S) 2,732 6.3 -14.9°
Reaches altitude 10° 17:00:31 10° 177° (S) 1,833 5.5 -15.2°
Maximum altitude 17:04:27 63° 259° (WSW) 617 3.3 -15.9°
Drops below altitude 10° 17:08:21 10° 341° (NNW) 1,820 5.7 -16.5°
Sets 17:10:29 0° 345° (NNW) 2,711 6.6 -16.8°
